TimeCST,TemperatureF,Dew PointF,Humidity,Sea Level PressureIn,VisibilityMPH,Wind Direction,Wind SpeedMPH,Gust SpeedMPH,PrecipitationIn,Events,Conditions,WindDirDegrees,DateUTC
12:35 AM,25.7,17.1,70,30.07,10.0,WNW,4.6,-,N/A,,Clear,300,2013-01-17 06:35:00
12:55 AM,24.1,15.8,71,30.08,10.0,NNW,4.6,-,N/A,,Clear,330,2013-01-17 06:55:00
1:15 AM,23.9,15.6,71,30.10,10.0,NW,3.5,-,N/A,,Clear,310,2013-01-17 07:15:00
1:35 AM,23.7,14.2,67,30.10,10.0,NNW,8.1,-,N/A,,Clear,330,2013-01-17 07:35:00
1:55 AM,23.2,12.2,63,30.11,10.0,NW,11.5,17.3,N/A,,Clear,320,2013-01-17 07:55:00
2:15 AM,22.6,10.2,59,30.14,10.0,NNW,12.7,20.7,N/A,,Clear,330,2013-01-17 08:15:00
2:35 AM,21.9,9.5,59,30.15,10.0,NNW,10.4,17.3,N/A,,Clear,330,2013-01-17 08:35:00
2:55 AM,21.0,9.5,61,30.16,10.0,NNW,4.6,-,N/A,,Clear,330,2013-01-17 08:55:00
3:15 AM,20.3,8.6,61,30.17,10.0,NNW,11.5,-,N/A,,Clear,330,2013-01-17 09:15:00
3:35 AM,19.6,8.2,61,30.18,10.0,NNW,8.1,-,N/A,,Clear,330,2013-01-17 09:35:00
3:55 AM,19.2,8.4,63,30.19,10.0,West,3.5,-,N/A,,Clear,280,2013-01-17 09:55:00
4:15 AM,18.5,7.3,62,30.19,10.0,NW,6.9,-,N/A,,Clear,320,2013-01-17 10:15:00
4:35 AM,18.1,6.8,61,30.20,10.0,NW,4.6,-,N/A,,Clear,310,2013-01-17 10:35:00
4:55 AM,18.0,5.5,58,30.21,10.0,WNW,4.6,-,N/A,,Clear,290,2013-01-17 10:55:00
5:15 AM,17.4,5.9,61,30.22,10.0,West,3.5,-,N/A,,Clear,280,2013-01-17 11:15:00
5:35 AM,16.9,4.8,59,30.23,10.0,WNW,6.9,-,N/A,,Clear,290,2013-01-17 11:35:00
5:55 AM,16.5,5.0,61,30.23,10.0,WNW,5.8,-,N/A,,Clear,290,2013-01-17 11:55:00
6:15 AM,15.8,3.7,59,30.24,10.0,West,6.9,-,N/A,,Clear,280,2013-01-17 12:15:00
6:35 AM,15.8,2.3,55,30.25,10.0,WNW,4.6,-,N/A,,Clear,300,2013-01-17 12:35:00
6:55 AM,15.3,3.0,58,30.26,10.0,WNW,4.6,-,N/A,,Clear,290,2013-01-17 12:55:00
7:15 AM,15.6,2.5,56,30.27,10.0,WNW,5.8,-,N/A,,Clear,290,2013-01-17 13:15:00
7:35 AM,15.3,2.8,58,30.28,10.0,WNW,8.1,-,N/A,,Clear,290,2013-01-17 13:35:00
7:55 AM,15.6,3.0,58,30.29,10.0,WNW,4.6,-,N/A,,Clear,290,2013-01-17 13:55:00
8:15 AM,15.6,3.7,59,30.30,10.0,WNW,6.9,-,N/A,,Clear,290,2013-01-17 14:15:00
8:35 AM,16.2,3.2,57,30.30,10.0,NW,11.5,-,N/A,,Clear,310,2013-01-17 14:35:00
8:55 AM,16.5,2.8,55,30.31,10.0,NW,10.4,-,N/A,,Clear,310,2013-01-17 14:55:00
9:15 AM,17.2,3.2,54,30.32,10.0,NW,11.5,-,N/A,,Clear,310,2013-01-17 15:15:00
9:35 AM,17.2,2.5,52,30.32,10.0,NNW,11.5,-,N/A,,Clear,330,2013-01-17 15:35:00
9:55 AM,18.1,3.2,52,30.33,10.0,WNW,10.4,-,N/A,,Clear,290,2013-01-17 15:55:00
10:35 AM,18.3,2.3,50,30.33,10.0,NW,11.5,-,N/A,,Clear,320,2013-01-17 16:35:00
10:55 AM,18.7,1.6,47,30.34,10.0,WNW,13.8,17.3,N/A,,Clear,300,2013-01-17 16:55:00
11:35 AM,19.2,0.9,45,30.33,10.0,NW,10.4,-,N/A,,Clear,310,2013-01-17 17:35:00
11:55 AM,19.0,-0.8,42,30.32,10.0,NW,10.4,-,N/A,,Clear,310,2013-01-17 17:55:00
12:15 PM,19.4,0.5,44,30.32,10.0,WNW,9.2,-,N/A,,Clear,300,2013-01-17 18:15:00
12:55 PM,20.3,3.0,47,30.30,10.0,WNW,8.1,-,N/A,,Scattered Clouds,290,2013-01-17 18:55:00
1:15 PM,20.7,3.6,48,30.30,10.0,West,6.9,-,N/A,,Clear,260,2013-01-17 19:15:00
1:35 PM,21.0,4.3,49,30.30,10.0,WNW,6.9,-,N/A,,Clear,300,2013-01-17 19:35:00
1:55 PM,21.6,5.5,50,30.29,10.0,WNW,9.2,-,N/A,,Clear,290,2013-01-17 19:55:00
2:15 PM,21.9,5.7,50,30.29,10.0,West,9.2,-,N/A,,Clear,270,2013-01-17 20:15:00
2:35 PM,22.5,6.1,50,30.29,10.0,West,10.4,-,N/A,,Clear,270,2013-01-17 20:35:00
2:55 PM,23.0,6.8,50,30.29,10.0,West,10.4,-,N/A,,Clear,260,2013-01-17 20:55:00
3:15 PM,23.0,6.1,48,30.29,10.0,West,8.1,-,N/A,,Clear,280,2013-01-17 21:15:00
3:55 PM,23.4,7.2,50,30.29,10.0,West,8.1,-,N/A,,Clear,260,2013-01-17 21:55:00
4:55 PM,22.1,7.7,54,30.31,10.0,WNW,4.6,-,N/A,,Clear,290,2013-01-17 22:55:00
5:15 PM,21.6,8.2,57,30.31,10.0,West,3.5,-,N/A,,Clear,280,2013-01-17 23:15:00
5:35 PM,21.0,7.9,57,30.31,10.0,West,3.5,-,N/A,,Clear,270,2013-01-17 23:35:00
5:55 PM,20.3,7.9,59,30.31,10.0,West,3.5,-,N/A,,Clear,260,2013-01-17 23:55:00
6:35 PM,20.3,8.4,60,30.32,10.0,WNW,4.6,-,N/A,,Clear,300,2013-01-18 00:35:00
7:15 PM,19.0,8.2,63,30.34,10.0,WNW,5.8,-,N/A,,Clear,300,2013-01-18 01:15:00
7:55 PM,18.0,8.4,66,30.34,10.0,NW,4.6,-,N/A,,Clear,320,2013-01-18 01:55:00
8:15 PM,18.1,9.3,68,30.34,10.0,WNW,3.5,-,N/A,,Clear,300,2013-01-18 02:15:00
8:55 PM,17.6,8.8,68,30.36,10.0,Calm,Calm,-,N/A,,Clear,0,2013-01-18 02:55:00
9:15 PM,16.0,8.2,72,30.35,10.0,Calm,Calm,-,N/A,,Clear,0,2013-01-18 03:15:00
9:35 PM,16.9,9.1,72,30.36,10.0,NW,3.5,-,N/A,,Clear,320,2013-01-18 03:35:00
9:55 PM,16.0,8.4,72,30.35,10.0,Calm,Calm,-,N/A,,Clear,0,2013-01-18 03:55:00
11:15 PM,11.3,7.0,83,30.36,10.0,NNW,3.5,-,N/A,,Clear,330,2013-01-18 05:15:00
11:35 PM,15.3,9.3,77,30.36,10.0,Calm,Calm,-,N/A,,Clear,0,2013-01-18 05:35:00
11:55 PM,12.9,7.3,78,30.36,10.0,NNW,3.5,-,N/A,,Clear,340,2013-01-18 05:55:00